GUOWANG

导读 | 豆包AI

HULIANWANG DIGUI-112是由中国于2025年12月6日发射的低轨互联网卫星,隶属于中国低轨卫星互联网星座体系,旨在补充、完善全球覆盖的卫星互联网通信网络,为全球各个区域提供高速稳定的宽带互联网接入服务,助力天地一体化信息网络建设,填补地面通信覆盖盲区,推动全球互联信息基础设施发展。

Basic Information
目录编号:
66922
目录名称:
HULIANWANG DIGUI-112
国际标识:
2025-285H
轨道中心:
EARTH
卫星名称:
HULIANWANG DIGUI-112
卫星全名:
GUOWANG
卫星状态:
在轨 (已飞行98 天)
发射日期:
2025-12-06 UTC
国别 :
中国 (CN)
星等 :
--
Orbit Information
数据来源 国际轨道数据 AOE轨道数据
星历时间 2026-03-13T21:33:01+0800
13小时前
查看轨道信息
2026-03-14T03:00:00+0800
8小时前
查看轨道信息
半长轴 7527.423km 7527.43km
偏心率 0.0000202 0.0000146
轨道倾角 50.008° 50.008°
近地点辐角 320.518° 130.987°
升交点赤经 128.686° 127.867°
平近点角 39.567° 236.435°
近地点 1149.133km 1149.183km
远地点 1149.439km 1149.403km
周期 108.325分钟 108.325分钟
每日圈数 13.293315 13.293297
Detailed Information
使用方式:
暂无
2D Orbit Map
3D Orbit Map
Orbit Altitude Analysis Chart
Orbit Inclination Analysis Chart
Orbit Comprehensive Analysis Chart
View Comprehensive Chart